Jefferson, NC

6:04 AM EDT on July 20, 2019 (GMT -0400)
Ashe County

Weather History for KGEV - May, 2019

Change the Weather History Date:

Friday, May 17, 2019

  Actual Average Record
Temperature  
Mean Temperature 66 °F -  
Max Temperature 76 °F 70 °F 84 °F (1987)
Min Temperature 56 °F 47 °F 31 °F (1967)
Cooling Degree Days 1    
Growing Degree Days 16 (Base 50)    
Moisture  
Dew Point 55 °F    
Average Humidity 68    
Maximum Humidity 90    
Minimum Humidity 48    
Precipitation  
Precipitation 0.00 in - - ()
Sea Level Pressure  
Sea Level Pressure 30.04 in    
Wind  
Wind Speed 8 mph (West)    
Max Wind Speed 26 mph    
Max Gust Speed 34 mph    
Visibility 10 miles    
Events Rain , Thunderstorm    
Averages and records for this station are not official NWS values.
T = Trace of Precipitation, MM = Missing Value Source: NWS Daily Summary

Daily Weather History Graph

Daily Weather History Graph

Search for Another Location

Airport or City:

Astronomy

May. 17, 2019 Rise Set
Actual Time 6:17 AM EDT 8:27 PM EDT
Civil Twilight 5:48 AM EDT 8:55 PM EDT
Nautical Twilight 5:13 AM EDT 9:31 PM EDT
Astronomical Twilight 4:35 AM EDT 10:09 PM EDT
Moon 7:17 PM EDT (5/17) 5:43 AM EDT (5/17)
Length of Visible Light 15h 07m
Length of Day
14h 09m
Waxing Gibbous, 98% of the Moon is Illuminated
May 17
Waxing Gibbous
May 18
Full
May 26
Last Quarter
Jun 3
New
Jun 10
First Quarter

Hourly Weather History & Observations

Time (EDT) Temp. Dew Point Humidity Pressure Visibility Wind Dir Wind Speed Gust Speed Precip Events Conditions
12:05 AM 60.8 °F 49.6 °F 67% 30.03 in 10.0 mi Calm Calm - N/A   Clear
12:25 AM 59.0 °F 50.0 °F 72% 30.03 in 10.0 mi ESE 3.5 mph - N/A   Clear
12:45 AM 60.4 °F 50.4 °F 69% 30.03 in 10.0 mi WSW 4.6 mph - N/A   Clear
1:05 AM 59.4 °F 50.4 °F 72% 30.03 in 10.0 mi WNW 5.8 mph - N/A   Clear
1:25 AM 60.4 °F 50.9 °F 71% 30.03 in 10.0 mi West 9.2 mph - N/A   Clear
1:45 AM 60.4 °F 51.3 °F 72% 30.03 in 10.0 mi West 6.9 mph - N/A   Clear
2:05 AM 60.8 °F 51.4 °F 71% 30.02 in 10.0 mi West 6.9 mph - N/A   Clear
2:25 AM 60.1 °F 51.6 °F 74% 30.02 in 10.0 mi West 4.6 mph - N/A   Clear
2:45 AM 61.0 °F 51.8 °F 72% 30.01 in 10.0 mi West 6.9 mph - N/A   Clear
3:05 AM 61.0 °F 52.2 °F 73% 30.00 in 10.0 mi WSW 5.8 mph - N/A   Scattered Clouds
3:25 AM 61.5 °F 52.2 °F 71% 29.99 in 10.0 mi WSW 4.6 mph - N/A   Overcast
3:45 AM 61.0 °F 52.2 °F 73% 29.99 in 10.0 mi WSW 5.8 mph - N/A   Overcast
4:05 AM 61.0 °F 51.8 °F 72% 29.99 in 10.0 mi WSW 5.8 mph - N/A   Mostly Cloudy
4:25 AM 56.3 °F 51.1 °F 83% 29.99 in 10.0 mi Calm Calm - N/A   Scattered Clouds
4:45 AM 59.4 °F 51.6 °F 76% 30.00 in 10.0 mi Calm Calm - N/A   Clear
5:05 AM 59.2 °F 51.6 °F 76% 30.01 in 10.0 mi Calm Calm - N/A   Clear
5:25 AM 57.0 °F 52.0 °F 83% 30.01 in 10.0 mi Calm Calm - N/A   Scattered Clouds
5:45 AM 61.3 °F 52.9 °F 74% 30.01 in 10.0 mi West 8.1 mph - N/A   Scattered Clouds
6:05 AM 63.1 °F 52.7 °F 69% 30.00 in 10.0 mi West 18.4 mph 25.3 mph N/A   Mostly Cloudy
6:25 AM 63.1 °F 51.8 °F 66% 30.00 in 10.0 mi West 19.6 mph 27.6 mph N/A   Mostly Cloudy
6:45 AM 63.0 °F 51.8 °F 67% 30.01 in 10.0 mi West 24.2 mph 32.2 mph N/A   Scattered Clouds
7:05 AM 62.6 °F 52.3 °F 69% 30.02 in 10.0 mi West 26.5 mph 34.5 mph N/A   Scattered Clouds
7:25 AM 62.6 °F 52.3 °F 69% 30.02 in 10.0 mi West 21.9 mph 32.2 mph N/A   Mostly Cloudy
7:45 AM 63.3 °F 52.7 °F 68% 30.02 in 10.0 mi West 17.3 mph 27.6 mph N/A   Mostly Cloudy
8:25 AM 62.1 °F 53.6 °F 74% 30.04 in 10.0 mi West 11.5 mph 20.7 mph N/A   Clear
9:05 AM 64.4 °F 52.7 °F 66% 30.04 in 10.0 mi West 8.1 mph - N/A   Clear
9:45 AM 65.7 °F 53.2 °F 64% 30.04 in 10.0 mi West 18.4 mph 25.3 mph N/A   Clear
10:05 AM 66.4 °F 54.5 °F 66% 30.05 in 10.0 mi West 18.4 mph 25.3 mph N/A   Clear
10:25 AM 65.3 °F 55.9 °F 72% 30.07 in 10.0 mi NW 9.2 mph 27.6 mph N/A Rain Light Rain
10:45 AM 63.5 °F 55.6 °F 75% 30.08 in 10.0 mi North 5.8 mph 20.7 mph N/A   Overcast
11:05 AM 61.5 °F 56.5 °F 83% 30.09 in 10.0 mi Calm Calm - N/A   Overcast
11:25 AM 61.7 °F 57.6 °F 86% 30.09 in 10.0 mi Calm Calm - N/A Rain Light Rain
11:45 AM 61.3 °F 58.5 °F 90% 30.08 in 10.0 mi Calm Calm - N/A Rain Light Rain
12:05 PM 63.0 °F 58.5 °F 85% 30.07 in 10.0 mi NW 4.6 mph - N/A   Mostly Cloudy
12:25 PM 65.5 °F 59.7 °F 82% 30.06 in 10.0 mi West 6.9 mph - N/A   Scattered Clouds
12:45 PM 69.1 °F 59.7 °F 72% 30.06 in 10.0 mi West 10.4 mph 17.3 mph N/A   Clear
1:25 PM 70.9 °F 59.2 °F 66% 30.06 in 10.0 mi West 11.5 mph 16.1 mph N/A   Scattered Clouds
2:05 PM 71.1 °F 59.0 °F 66% 30.06 in 10.0 mi WNW 17.3 mph 20.7 mph N/A   Clear
2:45 PM 73.2 °F 59.2 °F 61% 30.04 in 10.0 mi West 13.8 mph 20.7 mph N/A   Clear
3:05 PM 74.3 °F 59.2 °F 59% 30.04 in 10.0 mi WNW 12.7 mph 21.9 mph N/A   Clear
3:25 PM 74.8 °F 58.1 °F 56% 30.03 in 10.0 mi WNW 16.1 mph 24.2 mph N/A   Clear
3:45 PM 75.4 °F 58.8 °F 56% 30.03 in 10.0 mi West 9.2 mph 18.4 mph N/A   Scattered Clouds
4:05 PM - - N/A% 30.02 in 10.0 mi WNW 16.1 mph 19.6 mph N/A   Scattered Clouds
4:25 PM 75.9 °F 57.0 °F 52% 30.02 in 10.0 mi West 20.7 mph 26.5 mph N/A   Scattered Clouds
4:45 PM 76.1 °F 56.5 °F 50% 30.03 in 10.0 mi West 10.4 mph 19.6 mph N/A   Clear
5:05 PM 76.1 °F 56.7 °F 51% 30.03 in 10.0 mi WNW 15.0 mph 25.3 mph N/A   Scattered Clouds
5:25 PM 75.9 °F 54.7 °F 48% 30.02 in 10.0 mi WNW 10.4 mph 25.3 mph N/A   Scattered Clouds
5:45 PM 75.6 °F 56.1 °F 51% 30.02 in 10.0 mi West 8.1 mph 17.3 mph N/A   Scattered Clouds
6:05 PM 74.8 °F 56.3 °F 52% 30.02 in 10.0 mi West 12.7 mph 17.3 mph N/A   Scattered Clouds
6:25 PM 74.8 °F 56.3 °F 52% 30.02 in 10.0 mi West 12.7 mph 23.0 mph N/A   Scattered Clouds
6:45 PM 75.2 °F 56.3 °F 52% 30.02 in 10.0 mi WNW 8.1 mph 20.7 mph N/A   Scattered Clouds
7:05 PM 74.3 °F 55.9 °F 53% 30.02 in 10.0 mi WNW 11.5 mph - N/A Thunderstorm Clear
7:25 PM 74.1 °F 57.0 °F 55% 30.02 in 10.0 mi West 10.4 mph - N/A   Clear
7:45 PM 73.0 °F 56.7 °F 56% 30.03 in 10.0 mi WNW 10.4 mph 19.6 mph N/A   Clear
8:05 PM 72.5 °F 57.0 °F 58% 30.03 in 10.0 mi WNW 9.2 mph 18.4 mph N/A   Clear
8:25 PM 71.6 °F 57.0 °F 60% 30.04 in 10.0 mi West 9.2 mph 21.9 mph N/A   Clear
8:45 PM 71.1 °F 57.2 °F 61% 30.06 in 10.0 mi West 11.5 mph 18.4 mph N/A   Clear
9:05 PM 70.5 °F 57.6 °F 63% 30.06 in 10.0 mi West 8.1 mph - N/A   Clear
9:25 PM 70.0 °F 58.3 °F 66% 30.07 in 10.0 mi WNW 10.4 mph - N/A   Clear
9:45 PM 69.8 °F 58.3 °F 67% 30.08 in 10.0 mi West 10.4 mph - N/A   Clear
10:05 PM 69.1 °F 58.6 °F 69% 30.09 in 10.0 mi WNW 10.4 mph - N/A   Clear
10:25 PM 68.9 °F 59.4 °F 72% 30.10 in 10.0 mi West 6.9 mph - N/A   Scattered Clouds
10:45 PM 68.7 °F 60.3 °F 74% 30.10 in 10.0 mi WNW 8.1 mph - N/A   Scattered Clouds
11:05 PM 68.5 °F 60.8 °F 76% 30.10 in 10.0 mi WNW 10.4 mph - N/A   Scattered Clouds
11:25 PM 68.4 °F 61.2 °F 78% 30.10 in 10.0 mi WNW 10.4 mph - N/A   Scattered Clouds
11:45 PM 68.4 °F 61.2 °F 78% 30.09 in 10.0 mi WNW 15.0 mph 19.6 mph N/A   Scattered Clouds